Wind_Speed
9 8 10 12 14 16 17 18 19 17 15 14 13 11 9 8 7 6 4 4 3 2 1 1 2 2 3 4 4 5 5 6 6 6 7 7 7 8 8 8 8 9 9
9 6 8 10 13 14 16 17 18 17 15 14 13 11 9 8 7 5 5 4 3 2 1 1 1 2 3 4 4 5 6 7 7 7 7 8 8 8 9 9 9 9 9
8 4 4 8 10 12 14 16 16 15 13 13 12 11 9 9 7 6 5 4 3 3 1 1 1 2 3 4 4 5 6 7 7 7 8 9 9 9 10 10 10 10 10
8 4 1 4 6 9 12 14 14 14 13 13 12 11 10 9 8 7 6 5 4 3 2 1 1 2 3 4 5 6 6 7 8 8 9 10 11 11 10 11 11 11 11
8 4 2 0 3 5 9 12 12 12 12 12 12 11 10 9 8 7 7 6 5 4 3 2 2 2 3 3 4 5 7 8 8 9 10 11 11 12 11 11 11 12 12
8 5 2 1 2 4 7 9 10 11 11 11 11 11 11 10 9 8 8 7 6 5 4 4 3 4 4 4 5 6 8 8 9 10 11 12 12 12 12 12 12 12 13
6 5 2 1 2 4 5 7 8 10 10 10 11 11 10 9 9 9 8 8 7 6 6 6 5 6 6 7 8 9 9 10 11 11 12 13 13 13 14 14 14 14 14
6 4 2 1 1 3 5 6 7 8 9 9 10 10 10 10 10 10 10 9 9 8 8 8 8 8 9 10 10 11 12 12 13 13 14 14 15 15 15 16 16 16 16
6 4 3 2 2 3 4 5 7 8 9 10 10 11 11 11 11 11 11 11 10 10 10 10 10 11 12 12 13 14 14 15 15 15 16 16 17 17 17 17 18 18 18
6 5 4 4 5 5 6 7 8 9 11 11 11 12 13 13 13 13 12 12 12 12 12 12 13 14 14 15 16 17 17 18 18 18 18 19 19 19 19 19 20 20 20
8 7 6 5 6 6 7 8 9 10 11 12 13 13 14 15 15 15 15 15 15 15 15 15 15 16 17 18 19 20 20 21 21 21 21 21 21 21 21 22 22 22 22
9 8 8 7 7 8 8 9 10 11 12 13 14 14 15 16 16 17 17 17 17 18 18 18 18 19 20 21 21 22 22 23 23 23 23 23 23 23 23 23 23 24 24
11 11 10 9 9 9 10 10 11 12 13 14 15 16 17 18 18 18 19 19 20 20 20 20 21 21 22 23 23 24 24 25 25 25 25 25 25 25 25 25 25 25 25
13 14 13 12 11 11 11 11 12 13 14 15 16 18 19 19 20 21 21 22 22 22 23 23 23 24 24 25 25 25 26 26 27 27 27 28 27 27 27 27 28 28 27
16 15 15 14 14 13 13 13 14 14 15 16 18 19 20 21 22 23 24 24 24 24 24 25 25 25 26 26 27 27 28 28 28 29 29 29 29 29 29 29 29 29 29
18 18 17 16 16 16 16 16 16 16 17 18 19 20 21 22 23 24 24 25 26 26 26 27 27 27 27 28 28 29 28 29 30 30 31 31 31 31 31 31 32 32 32
20 20 19 19 19 19 19 18 18 18 18 19 20 21 21 22 24 24 25 26 26 27 27 28 28 28 28 29 30 31 31 31 32 32 33 33 33 33 33 33 33 34 35
22 22 22 23 22 21 21 21 22 21 21 22 22 23 23 23 24 24 24 26 27 28 29 30 30 30 31 32 33 33 33 33 34 34 35 35 35 35 36 36 36 36 37
24 24 25 25 25 24 24 25 25 25 26 26 25 26 27 28 28 28 27 28 29 29 30 31 31 32 33 34 35 35 36 36 36 36 37 37 38 38 39 39 39 39 40
25 26 26 27 27 27 27 28 29 29 29 29 29 30 31 31 31 31 31 31 32 31 32 33 33 34 35 35 36 38 39 39 39 39 39 40 41 41 42 43 43 42 43
25 26 28 28 29 29 30 32 32 32 32 33 33 33 33 34 33 32 33 34 35 35 35 36 36 36 37 37 38 39 40 41 41 42 42 42 43 44 45 46 46 46 47
25 27 27 28 30 31 31 32 33 33 34 35 35 35 34 34 35 36 37 38 38 39 39 38 38 40 40 41 40 41 42 43 44 44 45 46 47 48 48 49 50 50 50
27 27 28 29 30 31 32 32 34 35 35 35 37 37 36 35 35 36 37 38 39 39 39 40 40 41 42 42 42 42 43 45 46 47 48 49 49 50 51 52 53 53 54
28 29 29 29 30 31 32 33 33 34 35 36 35 35 36 36 37 38 38 39 39 39 39 40 41 41 42 43 44 44 45 47 48 49 50 52 52 54 55 55 56 56 56
29 29 30 31 31 31 32 33 34 34 33 33 33 34 35 35 35 36 38 38 38 39 40 42 42 42 44 45 46 47 48 50 51 53 55 56 56 57 57 58 58 58 58
29 30 30 31 32 32 32 33 34 33 33 33 33 34 34 35 35 35 36 37 37 39 41 42 44 45 46 47 48 50 52 53 55 57 57 58 59 59 59 59 59 58 58
Wind_Direction
316 270 244 232 225 225 223 224 225 222 225 230 228 218 214 212 211 212 201 189 184 176 151 93 52 37 22 14 8 0 353 348 345 344 343 341 336 331 325 319 313 308 302
328 297 246 228 221 221 223 222 223 219 219 222 216 207 205 203 198 191 182 183 186 187 168 117 43 14 5 3 358 357 354 350 346 344 344 343 338 331 326 323 319 314 310
337 321 246 223 217 219 222 221 219 213 210 211 208 202 199 194 191 190 188 189 190 188 175 156 16 1 359 1 358 357 358 357 353 349 346 345 343 337 330 324 320 314 311
353 355 303 230 215 216 213 210 208 204 206 206 202 200 197 197 199 197 197 198 200 204 212 238 317 346 353 359 360 2 1 358 357 355 351 348 344 340 334 328 322 316 311
5 17 28 116 198 200 195 196 197 199 198 201 204 203 202 203 202 203 208 213 217 224 240 258 287 314 328 339 347 352 352 352 352 350 347 344 342 340 337 332 326 318 313
8 20 44 102 158 164 175 187 193 194 195 200 203 202 204 205 205 212 216 223 228 236 248 261 280 293 301 310 320 327 332 336 337 338 337 337 337 336 334 332 328 322 316
360 18 39 130 155 165 169 177 186 192 195 200 202 205 207 208 213 219 223 229 236 243 250 261 273 284 293 300 306 312 316 321 325 327 329 330 330 330 328 326 325 322 318
345 352 6 28 163 182 190 194 194 197 204 208 207 210 216 219 223 227 231 235 242 248 256 264 273 281 288 294 299 303 308 312 314 317 319 320 321 322 322 321 319 318 316
328 324 305 275 237 223 213 211 211 211 212 215 218 221 225 228 230 234 240 242 246 252 259 266 274 280 285 290 294 299 302 305 307 309 311 312 313 314 315 315 314 313 313
312 309 297 270 254 244 236 232 229 226 225 226 229 230 234 238 239 241 243 248 253 258 263 269 275 280 284 288 291 295 298 300 302 304 306 307 308 308 309 309 309 308 308
300 295 292 282 267 258 251 246 242 239 236 236 237 239 242 244 245 246 250 255 260 263 267 271 276 281 284 287 289 292 294 296 298 300 303 304 304 304 305 305 306 306 306
294 290 284 281 276 269 261 256 251 247 245 244 244 246 248 249 250 251 256 260 265 268 271 275 278 281 283 286 288 290 293 295 296 296 298 299 299 300 301 302 303 303 303
287 287 279 275 274 272 266 260 258 254 252 252 253 255 255 254 253 254 259 263 267 271 274 277 280 281 282 285 287 288 291 294 295 295 295 295 296 297 298 299 299 299 299
285 285 280 275 274 271 269 267 265 261 259 259 259 260 260 260 258 258 261 264 268 271 274 278 280 282 283 284 285 287 290 292 294 294 294 294 294 295 296 297 297 296 297
283 282 278 275 274 272 271 270 268 265 264 263 264 263 264 264 265 264 264 264 267 272 274 277 279 281 283 284 286 288 289 290 291 293 293 293 293 293 293 294 295 295 295
279 278 276 276 277 276 273 271 270 269 267 267 266 266 267 267 267 269 269 270 271 272 274 276 278 280 282 283 284 286 287 288 289 291 291 291 292 292 292 292 293 294 294
276 276 276 277 277 278 278 275 273 272 272 272 271 269 272 272 271 271 271 271 273 275 275 276 277 279 281 282 284 284 285 286 287 288 288 288 289 289 290 291 292 292 293
274 274 276 276 275 272 275 277 278 274 275 275 275 276 275 275 275 274 273 273 275 275 276 276 278 280 281 282 283 283 284 286 286 286 286 287 288 288 289 290 291 291 292
272 273 276 277 277 273 275 277 277 277 278 277 276 278 277 277 277 277 275 275 277 277 278 278 279 279 281 282 282 282 284 285 286 286 286 286 287 288 289 290 291 291 291
273 273 274 277 276 275 274 275 276 278 279 278 279 280 281 280 280 281 278 278 279 279 281 281 282 281 281 282 282 282 283 284 284 284 285 285 287 287 288 289 289 289 289
275 274 274 274 274 276 277 277 275 275 278 279 279 281 281 280 280 281 280 280 280 280 280 280 281 282 282 281 282 283 284 285 285 285 286 286 287 287 288 288 288 288 288
278 277 277 277 276 275 276 276 275 275 277 278 279 280 281 280 280 281 282 282 282 281 280 281 281 282 281 281 282 283 284 284 285 286 286 287 287 288 288 288 288 288 288
282 281 280 279 279 277 276 277 276 274 276 278 279 279 279 280 281 284 284 284 284 282 281 282 282 281 281 282 284 285 285 286 286 287 287 287 287 287 288 288 288 288 288
283 282 282 281 281 279 278 277 278 278 277 279 279 279 280 281 284 285 285 285 284 282 283 283 284 284 285 286 286 286 287 287 287 288 288 288 288 288 288 288 288 288 288
284 284 283 283 283 281 279 280 280 279 280 281 281 282 282 283 285 285 283 284 284 284 284 285 286 287 287 288 288 289 289 289 289 290 290 290 289 289 289 288 288 287 287
286 287 287 285 284 283 282 284 283 281 282 282 283 283 284 285 287 287 287 287 288 288 289 288 288 289 289 290 291 291 291 291 291 291 291 291 290 289 289 288 288 287 286
Height
5835 5834 5835 5836 5838 5841 5844 5848 5852 5855 5859 5862 5865 5867 5870 5872 5874 5876 5877 5878 5879 5879 5880 5880 5880 5880 5880 5880 5880 5879 5879 5878 5878 5877 5877 5876 5876 5875 5875 5875 5874 5874 5874
5835 5834 5834 5835 5838 5840 5843 5846 5850 5853 5857 5861 5864 5866 5869 5871 5873 5875 5876 5877 5878 5879 5879 5880 5880 5880 5880 5879 5879 5879 5878 5878 5877 5876 5876 5876 5876 5874 5874 5873 5873 5872 5872
5836 5834 5834 5835 5837 5839 5842 5845 5848 5852 5856 5859 5863 5865 5868 5870 5872 5874 5875 5877 5877 5878 5879 5879 5879 5880 5879 5879 5879 5878 5878 5877 5876 5876 5875 5875 5874 5873 5872 5871 5871 5870 5870
5837 5835 5835 5835 5837 5839 5841 5844 5848 5851 5855 5858 5862 5865 5867 5870 5872 5873 5875 5876 5877 5878 5878 5879 5879 5879 5879 5879 5878 5878 5877 5877 5876 5875 5874 5873 5872 5872 5871 5870 5869 5868 5868
5838 5837 5836 5836 5838 5839 5841 5844 5847 5851 5854 5857 5861 5864 5867 5869 5871 5873 5874 5875 5876 5877 5878 5878 5878 5878 5878 5878 5878 5877 5877 5876 5875 5874 5873 5872 5871 5870 5869 5869 5868 5866 5866
5840 5839 5838 5839 5840 5841 5843 5845 5848 5851 5854 5857 5860 5863 5865 5868 5870 5872 5873 5874 5875 5876 5877 5877 5877 5877 5877 5877 5877 5876 5876 5875 5874 5873 5872 5871 5870 5869 5868 5867 5865 5864 5863
5842 5841 5841 5841 5841 5843 5844 5846 5848 5851 5854 5856 5859 5862 5864 5866 5868 5870 5871 5872 5874 5875 5875 5876 5876 5876 5876 5876 5875 5875 5874 5874 5873 5872 5871 5870 5868 5867 5866 5864 5863 5862 5861
5842 5842 5842 5842 5842 5843 5845 5846 5849 5851 5853 5855 5858 5860 5862 5864 5866 5868 5869 5870 5872 5873 5873 5874 5874 5874 5874 5874 5874 5873 5872 5872 5871 5870 5869 5867 5866 5865 5863 5862 5860 5859 5858
5843 5843 5842 5843 5843 5844 5846 5847 5848 5850 5852 5854 5856 5858 5860 5862 5864 5865 5867 5868 5869 5870 5871 5871 5871 5871 5871 5871 5871 5870 5870 5869 5868 5867 5866 5864 5863 5862 5860 5858 5857 5856 5854
5843 5842 5842 5843 5843 5844 5846 5847 5848 5849 5851 5852 5854 5856 5857 5859 5861 5863 5864 5865 5866 5867 5867 5868 5868 5868 5868 5868 5868 5867 5866 5865 5864 5863 5862 5861 5859 5858 5856 5855 5853 5851 5850
5842 5842 5842 5842 5842 5843 5844 5845 5846 5848 5849 5850 5851 5853 5855 5856 5858 5860 5861 5862 5863 5863 5864 5864 5864 5864 5864 5864 5863 5863 5862 5861 5860 5859 5858 5856 5855 5853 5852 5850 5848 5847 5845
5841 5841 5841 5841 5841 5842 5842 5843 5844 5845 5847 5848 5849 5851 5852 5853 5854 5856 5857 5858 5858 5859 5859 5859 5859 5859 5859 5859 5858 5858 5857 5856 5855 5853 5852 5851 5850 5848 5846 5845 5843 5842 5840
5839 5839 5839 5839 5840 5840 5840 5841 5842 5842 5844 5845 5846 5847 5848 5849 5849 5851 5852 5853 5854 5854 5854 5854 5854 5854 5853 5853 5852 5852 5851 5850 5849 5848 5846 5845 5844 5842 5840 5839 5837 5836 5834
5836 5836 5837 5837 5837 5838 5838 5838 5839 5839 5840 5841 5842 5843 5844 5845 5845 5845 5846 5847 5848 5848 5848 5848 5848 5847 5847 5847 5846 5845 5844 5844 5842 5841 5840 5838 5837 5835 5834 5832 5830 5829 5827
5833 5834 5834 5834 5834 5835 5835 5835 5836 5836 5837 5837 5838 5839 5839 5840 5840 5840 5840 5841 5841 5841 5841 5841 5841 5841 5840 5839 5839 5838 5837 5836 5835 5834 5832 5831 5829 5828 5826 5825 5823 5822 5820
5830 5830 5830 5830 5830 5831 5831 5831 5832 5832 5832 5833 5833 5833 5834 5834 5834 5835 5834 5834 5834 5834 5834 5834 5834 5833 5832 5832 5831 5830 5829 5828 5827 5826 5825 5823 5821 5820 5818 5817 5815 5813 5812
5825 5824 5825 5826 5826 5826 5826 5827 5826 5826 5827 5827 5827 5827 5828 5828 5828 5827 5827 5827 5827 5827 5827 5826 5826 5825 5824 5824 5823 5821 5821 5820 5819 5817 5816 5814 5813 5811 5809 5808 5806 5804 5802
5821 5821 5820 5820 5819 5819 5821 5821 5820 5819 5819 5820 5821 5821 5821 5821 5820 5820 5820 5819 5819 5819 5818 5818 5817 5817 5816 5815 5814 5812 5812 5811 5810 5808 5806 5805 5803 5801 5799 5798 5796 5795 5793
5815 5814 5814 5815 5814 5813 5815 5815 5815 5815 5814 5812 5811 5813 5813 5812 5812 5811 5811 5811 5810 5809 5809 5809 5808 5808 5807 5805 5804 5803 5801 5801 5799 5798 5796 5794 5793 5791 5788 5787 5785 5783 5781
5809 5809 5809 5808 5808 5807 5807 5808 5808 5807 5807 5806 5805 5805 5804 5803 5803 5802 5801 5801 5801 5800 5799 5799 5798 5797 5796 5795 5793 5792 5791 5790 5788 5787 5785 5783 5781 5779 5777 5775 5773 5771 5769
5802 5802 5802 5801 5801 5801 5801 5800 5799 5799 5799 5798 5797 5797 5796 5795 5794 5793 5792 5792 5791 5790 5789 5789 5788 5787 5786 5783 5782 5781 5779 5778 5776 5775 5773 5771 5768 5766 5764 5762 5760 5757 5755
5795 5795 5795 5794 5794 5793 5793 5792 5790 5790 5789 5789 5789 5788 5787 5786 5785 5784 5783 5782 5780 5779 5778 5778 5777 5776 5774 5772 5770 5769 5767 5765 5763 5762 5760 5757 5755 5752 5750 5747 5745 5742 5739
5788 5787 5787 5786 5786 5785 5784 5783 5782 5782 5781 5780 5779 5779 5778 5776 5775 5774 5773 5772 5771 5769 5768 5766 5765 5763 5761 5759 5758 5756 5754 5752 5750 5748 5745 5743 5740 5737 5734 5732 5728 5725 5722
5780 5780 5779 5778 5777 5777 5776 5775 5774 5772 5771 5771 5770 5769 5768 5766 5765 5763 5763 5762 5760 5758 5757 5755 5753 5751 5748 5746 5744 5742 5740 5737 5735 5732 5730 5727 5724 5720 5718 5715 5711 5708 5705
5773 5772 5771 5770 5769 5768 5767 5765 5764 5763 5762 5761 5760 5759 5758 5756 5755 5753 5751 5750 5749 5747 5745 5743 5741 5738 5736 5733 5731 5728 5725 5722 5719 5716 5713 5710 5706 5703 5700 5696 5693 5689 5686
5765 5764 5763 5761 5760 5759 5758 5756 5755 5754 5753 5752 5750 5749 5748 5746 5744 5743 5741 5739 5737 5735 5733 5731 5728 5726 5723 5720 5717 5713 5710 5705 5702 5698 5695 5691 5687 5684 5680 5677 5673 5670 5667